一网星座-0022星 (ONEWEB-0022 )

导读

ONEWEB-0022是英国OneWeb星座项目中的低轨宽带通信卫星,于2020年2月6日发射升空,属于该星座首批正式组网工作卫星之一。卫星质量约147千克,运行于近1200公里轨道,采用“弯管式”设计,依托全球关口站实现信号转发。它的成功入组,推动OneWeb逐步构建全球卫星互联网,为偏远地区提供高速宽带接入服务,同时遵循空间碎片规则,临近寿命将主动离轨保障轨道安全。

基本信息
目录编号:
45135
目录名称:
ONEWEB-0022
国际标识:
2020-008E
轨道中心:
EARTH
卫星名称:
一网星座-0022星
卫星全名:
一网星座-0022星 (ONEWEB-0022 )
卫星状态:
在轨 (已飞行2327 天)
发射日期:
2020-02-06 UTC
国别 :
英国 (GB)
星等 :
--
轨道信息
数据来源 国际轨道数据 AOE轨道数据
星历时间 2026-06-20T15:37:52+0800
21小时前
查看轨道信息
2026-06-18T00:00:00+0800
3天前
查看轨道信息
半长轴 7599.414km 7599.415km
偏心率 0.0001882 0.0001993
轨道倾角 87.884° 87.885°
近地点辐角 96.744° 90.530°
升交点赤经 35.687° 36.212°
平近点角 263.390° 8.555°
近地点 1219.846km 1219.763km
远地点 1222.708km 1222.793km
周期 109.883分钟 109.883分钟
每日圈数 13.104867 13.104866
详细信息
平衡模式:
三轴稳定
覆盖范围:
全球
运营商:
一网卫星公司
运营商所在国:
英国
制造商(研发单位):
空客防务与航天公司
制造商所在国:
法国大都会
使用方式:
暂无
卫星简介
OneWeb卫星网络由648颗重约125公斤的微型卫星组成,运行在1200公里的轨道上。 每颗卫星都能够提供至少每秒8千兆位的吞吐量,以使用其高吞吐量的Ku频段有效载荷为家庭和移动平台提供互联网接入。该卫星已退役。
2D轨道图
3D轨道图
轨道高度分析图
轨道倾角分析图
轨道综合分析图
查看轨道综合分析图